Regional Weather Roundup
Issued by NWS

Home | Current Version | Previous Version | Text Only | Print | Product List | Glossary On
Versions: 1 2 3 4 5 6 7 8 9 10 11 12 13 14 15 16 17 18 19 20 21 22 23 24 25 26 27 28 29 30 31 32 33 34 35 36 37 38 39 40 41 42 43 44 45 46 47 48 49 50
000
ASUS43 KMKX 070011
RWRWI

WISCONSIN REGIONAL WEATHER ROUNDUP
NATIONAL WEATHER SERVICE MILWAUKEE/SULLIVAN WI
700 PM CDT MON JUL 06 2015

NOTE: "FAIR" INDICATES FEW OR NO CLOUDS BELOW 12,000 FEET WITH NO
SIGNIFICANT WEATHER AND/OR OBSTRUCTIONS TO VISIBILITY.

WIZ001-002-006>008-014>016-023>028-070100-
NORTHWEST WISCONSIN

CITY           SKY/WX    TMP DP  RH WIND       PRES   REMARKS
SUPERIOR ARPT  MOSUNNY   66  52  59 N13G18    29.95R
6HR MIN TEMP:  60; 6HR MAX TEMP:  69; 6HR PCP:  0.04;

ASHLAND        PTSUNNY   64  60  87 N6        29.93S FOG
6HR MIN TEMP:  59; 6HR MAX TEMP:  65; 6HR PCP:  0.12;

HAYWARD        CLOUDY    64  56  75 N6        29.94S HAZE
6HR MIN TEMP:  59; 6HR MAX TEMP:  64; 6HR PCP:  0.25;

SIREN          MOSUNNY   68  55  61 N8        29.94S
6HR MIN TEMP:  59; 6HR MAX TEMP:  69; 6HR PCP:  0.03;

CUMBERLAND     PTSUNNY   64  55  72 N7        29.94S HAZE
RICE LAKE      MOSUNNY   65  57  74 N6        29.95R HAZE
6HR MIN TEMP:  60; 6HR MAX TEMP:  66; 6HR PCP:  0.08;

CHETEK         PTSUNNY   65  58  79 N8        29.94R HAZE
6HR MIN TEMP:  62; 6HR MAX TEMP:  73; 6HR PCP:  0.05;

LADYSMITH      CLOUDY    63  58  83 N12G17    29.94S HAZE
6HR MIN TEMP:  61; 6HR MAX TEMP:  73;

EAU CLAIRE     CLOUDY    65  57  75 N10       29.92R HAZE
6HR MIN TEMP:  64; 6HR MAX TEMP:  73; 6HR PCP:  0.32;

MENOMONIE      SUNNY     67  57  69 NW10      29.93S HAZE
6HR MIN TEMP:  63; 6HR MAX TEMP:  75; 6HR PCP:  0.11;

NEW RICHMOND   PTSUNNY   67  58  72 N7        29.95S HAZE
6HR MIN TEMP:  61; 6HR MAX TEMP:  69; 6HR PCP:  0.01;

OSCEOLA        MOSUNNY   69  58  69 N5        29.97S HAZE
6HR MIN TEMP:  61; 6HR MAX TEMP:  69; 6HR PCP:  0.02;

$$

WIZ003>005-009-010-017-018-070100-
NORTH CENTRAL WISCONSIN

CITY           SKY/WX    TMP DP  RH WIND       PRES   REMARKS
MANITOWISH WTR CLOUDY    58  58  98 N10       29.91R FOG
6HR MIN TEMP:  57; 6HR MAX TEMP:  69; 6HR PCP:  0.40;

ARBOR VITAE    PTSUNNY   59  57  92 N7        29.90S FOG
6HR MIN TEMP:  59; 6HR MAX TEMP:  72; 6HR PCP:  0.17;

WOODRUFF       PTSUNNY   59  57  92 N7        29.90S FOG
6HR MIN TEMP:  59; 6HR MAX TEMP:  72; 6HR PCP:  0.17;

RHINELANDER    CLOUDY    59  55  87 N10       29.89R FOG
6HR MIN TEMP:  59; 6HR MAX TEMP:  73; 6HR PCP:  0.61;

EAGLE RIVER    CLOUDY    57  55  94 N8        29.89R FOG
LAND O LAKES   CLOUDY    58  56  92 N8        29.91R FOG
6HR MIN TEMP:  57; 6HR MAX TEMP:  70; 6HR PCP:  0.13;

PHILLIPS       CLOUDY    60  57  90 N5        29.91S FOG
6HR MIN TEMP:  58; 6HR MAX TEMP:  70; 6HR PCP:  0.07;

TOMAHAWK       CLOUDY    59  55  89 N8        29.90R FOG
6HR MIN TEMP:  58; 6HR MAX TEMP:  72;

MEDFORD        PTSUNNY   61  56  83 N13G22    29.90R HAZE
6HR MIN TEMP:  60; 6HR MAX TEMP:  72; 6HR PCP:  0.39;

MERRILL        CLOUDY    61  58  90 N7G17     29.88R
6HR MIN TEMP:  60; 6HR MAX TEMP:  73; 6HR PCP:  0.33;

$$

WIZ029-030-035-036-043>047-070100-
CENTRAL WISCONSIN

CITY           SKY/WX    TMP DP  RH WIND       PRES   REMARKS
WAUSAU         CLOUDY    63  58  83 N14G24    29.84R HAZE
6HR MIN TEMP:  63; 6HR MAX TEMP:  75; 6HR PCP:  0.18;

MOSINEE        NOT AVBL
MARSHFIELD     CLOUDY    64  57  78 N15G23    29.87R
6HR MIN TEMP:  64; 6HR MAX TEMP:  76; 6HR PCP:  0.74;

STEVENS POINT  CLOUDY    64  62  94 NW13      29.84R
6HR MIN TEMP:  64; 6HR MAX TEMP:  76; 6HR PCP:  1.00;

WAUPACA        CLOUDY    75  73  93 W5        29.79S
6HR MIN TEMP:  75; 6HR MAX TEMP:  83;

WAUTOMA        CLOUDY    77  70  79 SW10      29.80F
6HR MIN TEMP:  77; 6HR MAX TEMP:  82;

WISC RAPIDS    CLOUDY    66  63  90 N16G23    29.85R
6HR MIN TEMP:  66; 6HR MAX TEMP:  80; 6HR PCP:  0.41;

CAMP DOUGLAS   CLOUDY    66  66 100 NW18G24   29.84R
                                      6HR PCP:  0.14;

$$

WIZ011>013-019>022-031-037>040-048>050-070100-
NORTHEAST WISCONSIN

CITY           SKY/WX    TMP DP  RH WIND       PRES   REMARKS
ANTIGO         CLOUDY    60  58  94 N14G23    29.85R FOG
SHAWANO        CLOUDY    73  70  88 SW12G20   29.77S
6HR MIN TEMP:  73; 6HR MAX TEMP:  80; 6HR PCP:  0.32;

OCONTO         CLOUDY    71  71 100 W13       29.76S VSB 3/4
6HR MIN TEMP:  71; 6HR MAX TEMP:  80; 6HR PCP:  0.74;

STURGEON BAY   CLOUDY    68  64  88 SE5       29.79S
6HR MIN TEMP:  66; 6HR MAX TEMP:  72;

GREEN BAY      LGT RAIN  74  70  87 W8G32     29.77S FOG
6HR MIN TEMP:  78; 6HR MAX TEMP:  80; 6HR PCP: TRACE;

MANITOWOC      CLOUDY    76  70  82 MISG      29.79S
6HR MIN TEMP:  69; 6HR MAX TEMP:  76;

APPLETON       PTSUNNY   77  64  65 SW16G23   29.80R
CLINTONVILLE   CLOUDY    72  70  94 W10       29.78S
OSHKOSH        CLOUDY    76  69  79 VRB5      29.79S
6HR MIN TEMP:  76; 6HR MAX TEMP:  80; 6HR PCP: TRACE;

$$

WIZ032>034-041-042-053>061-070100-
SOUTHWEST WISCONSIN

CITY           SKY/WX    TMP DP  RH WIND       PRES   REMARKS
LA CROSSE      PTSUNNY   68  60  75 N13       29.87R
6HR MIN TEMP:  67; 6HR MAX TEMP:  78; 6HR PCP:  0.38;

SPARTA         CLOUDY    64  61  88 N10G18    29.88R
6HR MIN TEMP:  64; 6HR MAX TEMP:  78; 6HR PCP:  0.19;

VIROQUA        CLOUDY    64  64 100 N18G25    29.86S
6HR MIN TEMP:  64; 6HR MAX TEMP:  76; 6HR PCP:  0.52;

BOSCOBEL       CLOUDY    75  72  90 NW6       29.80R
6HR MIN TEMP:  74; 6HR MAX TEMP:  81; 6HR PCP:  0.15;

PRAIRIE DU CHI CLOUDY    72  68  86 NW13G20   29.82R
6HR MIN TEMP:  72; 6HR MAX TEMP:  80; 6HR PCP:  0.11;

PLATTEVILLE    CLOUDY    77  73  85 S9        29.82S
6HR MIN TEMP:  75; 6HR MAX TEMP:  79;

$$

WIZ056-057-062-063-064-067-068-070100-
SOUTH CENTRAL WISCONSIN

CITY           SKY/WX    TMP DP  RH WIND       PRES   REMARKS
REEDSBURG      LGT RAIN  73  73  98 CALM      29.80S
6HR MIN TEMP:  73; 6HR MAX TEMP:  79; 6HR PCP:  0.01;

BARABOO/DELLS  CLOUDY    75  69  82 NW3       29.81S
6HR MIN TEMP:  75; 6HR MAX TEMP:  80;

LONE ROCK      RAIN      76  71  85 W3        29.80F
6HR MIN TEMP:  76; 6HR MAX TEMP:  81; 6HR PCP:  0.05;

MINERAL POINT  CLOUDY    77  72  83 SW7       29.82S
MADISON        CLOUDY    78  70  76 S7        29.80F HX  80
6HR MIN TEMP:  74; 6HR MAX TEMP:  80; 6HR PCP: TRACE;

MIDDLETON      CLOUDY    79  70  74 SW5       29.81F HX  81
6HR MIN TEMP:  76; 6HR MAX TEMP:  82;

WATERTOWN      CLOUDY    76  73  90 SW8       29.81F
6HR MIN TEMP:  73; 6HR MAX TEMP:  79;

MONROE         CLOUDY    77  72  83 S9        29.83S
JANESVILLE     CLOUDY    79  73  83 SW8       29.82F HX  82
$$

WIZ051-052-058>065-066-070>072-070100-
SOUTHEAST WISCONSIN

CITY           SKY/WX    TMP DP  RH WIND       PRES   REMARKS
MILWAUKEE      CLOUDY    77  68  73 SW10      29.82F
6HR MIN TEMP:  75; 6HR MAX TEMP:  85; 6HR PCP:  0.06;

WAUKESHA       PTSUNNY   75  68  78 S8        29.84F
MILWAUKEE/TIMM NOT AVBL
RACINE         CLOUDY    75  69  81 SW6       29.85F
6HR MIN TEMP:  73; 6HR MAX TEMP:  81; 6HR PCP:  0.08;

BURLINGTON     CLOUDY    74  69  85 CALM      29.83F
6HR MIN TEMP:  71; 6HR MAX TEMP:  75; 6HR PCP:  0.01;

KENOSHA        CLOUDY    76  70  82 CALM      29.83F
6HR MIN TEMP:  71; 6HR MAX TEMP:  85; 6HR PCP:  0.14;

FOND DU LAC    CLOUDY    78  70  76 SW8       29.80S HX  80
6HR MIN TEMP:  74; 6HR MAX TEMP:  82; 6HR PCP:  0.01;

SHEBOYGAN      CLOUDY    79  69  71 SW14      29.80S HX  81
6HR MIN TEMP:  75; 6HR MAX TEMP:  82;

WEST BEND      CLOUDY    77  68  73 S8        29.82F
JUNEAU         CLOUDY    76  70  80 S9        29.83S
6HR MIN TEMP:  73; 6HR MAX TEMP:  80;

$$

LSZ147-162-070100-
LAKE SUPERIOR

STATION/POSITION TIME  TEMP    WIND        PRES    WAVE
                       AIR SEA DIR/SP/G            HT/PER
                 (UTC) (F)     (DEG/KT/KT) (MB)    (FT/S)
W MID LAKE BUOY  2350   49 39  280/  6/  8 1013.0S   0
DEVILS ISLAND    0000   60     270/  7/  9 1013.4R
PORT WING        2312   63     320/  3/  6 1013.9R
SAXON HARBOR     2300   60        CALM     1013.2R
$$

LMZ867-665-643>646-070100-
LAKE MICHIGAN

STATION/POSITION TIME  TEMP    WIND        PRES    WAVE
                       AIR SEA DIR/SP/G            HT/PER


USA.gov is the U.S. government's official web portal to all federal, state and local government web resources and services.